TimeCET,TemperatureF,Dew PointF,Humidity,Sea Level PressureIn,VisibilityMPH,Wind Direction,Wind SpeedMPH,Gust SpeedMPH,PrecipitationIn,Events,Conditions,WindDirDegrees,DateUTC
12:00 AM,24.8,23.0,93,30.18,3.7,SW,3.5,-,N/A,,Unknown,230,2013-03-02 23:00:00
12:30 AM,26.6,23.0,86,30.18,3.7,SW,3.5,-,N/A,,Unknown,230,2013-03-02 23:30:00
1:00 AM,23.0,21.2,93,30.18,3.1,Variable,2.3,-,N/A,,Mist,0,2013-03-03 00:00:00
1:30 AM,24.8,23.0,93,30.18,3.7,Calm,Calm,-,N/A,,Unknown,0,2013-03-03 00:30:00
2:00 AM,24.8,21.2,86,30.18,3.7,Calm,Calm,-,N/A,,Unknown,0,2013-03-03 01:00:00
2:30 AM,24.8,23.0,93,30.18,3.1,Variable,1.2,-,N/A,,Mist,0,2013-03-03 01:30:00
3:00 AM,24.8,23.0,93,30.18,-9999.0,WNW,2.3,-,N/A,,Mist,300,2013-03-03 02:00:00
3:30 AM,26.6,24.8,93,30.18,-9999.0,North,3.5,-,N/A,,Mist,350,2013-03-03 02:30:00
4:00 AM,24.8,21.2,86,30.18,2.5,NNE,3.5,-,N/A,,Mist,30,2013-03-03 03:00:00
4:30 AM,24.8,23.0,93,30.18,-9999.0,Variable,2.3,-,N/A,,Mist,0,2013-03-03 03:30:00
5:00 AM,24.8,23.0,93,30.18,-9999.0,NE,4.6,-,N/A,,Mist,50,2013-03-03 04:00:00
5:30 AM,24.8,23.0,93,30.15,-9999.0,Variable,3.5,-,N/A,,Mist,0,2013-03-03 04:30:00
6:00 AM,26.6,24.8,93,30.15,1.8,Variable,2.3,-,N/A,,Mist,0,2013-03-03 05:00:00
6:30 AM,24.8,23.0,93,30.15,1.8,Variable,2.3,-,N/A,,Mist,0,2013-03-03 05:30:00
7:00 AM,23.0,21.2,93,30.18,1.5,Variable,1.2,-,N/A,,Mist,0,2013-03-03 06:00:00
7:30 AM,23.0,21.2,93,30.18,1.0,Variable,2.3,-,N/A,,Mist,0,2013-03-03 06:30:00
8:00 AM,24.8,23.0,93,30.18,1.5,NE,4.6,-,N/A,,Mist,50,2013-03-03 07:00:00
8:30 AM,26.6,24.8,93,30.18,1.5,NE,4.6,-,N/A,,Mist,40,2013-03-03 07:30:00
9:00 AM,28.4,26.6,93,30.18,1.9,NNE,6.9,-,N/A,,Mist,30,2013-03-03 08:00:00
9:30 AM,30.2,26.6,86,30.18,-9999.0,NE,6.9,-,N/A,,Mist,50,2013-03-03 08:30:00
10:00 AM,32.0,28.4,87,30.18,2.8,NE,8.1,-,N/A,,Mist,50,2013-03-03 09:00:00
10:30 AM,33.8,28.4,81,30.18,-9999.0,ENE,9.2,-,N/A,,Partly Cloudy,60,2013-03-03 09:30:00
11:00 AM,35.6,28.4,75,30.18,-9999.0,NE,8.1,-,N/A,,Mostly Cloudy,50,2013-03-03 10:00:00
11:30 AM,35.6,28.4,75,30.18,-9999.0,NE,10.4,-,N/A,,Scattered Clouds,50,2013-03-03 10:30:00
12:00 PM,37.4,30.2,75,30.18,3.1,NE,10.4,-,N/A,,Partly Cloudy,40,2013-03-03 11:00:00
12:30 PM,39.2,30.2,70,30.15,3.1,ENE,9.2,-,N/A,,Partly Cloudy,60,2013-03-03 11:30:00
1:00 PM,41.0,30.2,65,30.15,3.7,NE,11.5,-,N/A,,Scattered Clouds,40,2013-03-03 12:00:00
1:30 PM,41.0,30.2,65,30.15,3.1,NE,11.5,-,N/A,,Mist,50,2013-03-03 12:30:00
2:00 PM,42.8,28.4,57,30.12,4.3,NE,11.5,-,N/A,,Unknown,50,2013-03-03 13:00:00
2:30 PM,42.8,28.4,57,30.12,5.0,NE,11.5,-,N/A,,Unknown,50,2013-03-03 13:30:00
3:00 PM,42.8,28.4,57,30.12,5.0,NE,11.5,-,N/A,,Unknown,50,2013-03-03 14:00:00
3:30 PM,44.6,30.2,57,30.12,5.0,NE,11.5,-,N/A,,Unknown,50,2013-03-03 14:30:00
4:00 PM,44.6,28.4,53,30.12,5.0,NE,11.5,-,N/A,,Unknown,50,2013-03-03 15:00:00
4:30 PM,44.6,28.4,53,30.09,5.6,NE,11.5,-,N/A,,Unknown,50,2013-03-03 15:30:00
5:00 PM,42.8,28.4,57,30.09,5.6,ENE,10.4,-,N/A,,Unknown,60,2013-03-03 16:00:00
5:30 PM,42.8,28.4,57,30.09,5.0,ENE,10.4,-,N/A,,Unknown,60,2013-03-03 16:30:00
6:00 PM,41.0,28.4,61,30.09,5.0,ENE,9.2,-,N/A,,Unknown,60,2013-03-03 17:00:00
6:30 PM,37.4,28.4,70,30.09,4.3,NE,6.9,-,N/A,,Unknown,50,2013-03-03 17:30:00
7:00 PM,35.6,28.4,75,30.09,3.7,NE,5.8,-,N/A,,Unknown,50,2013-03-03 18:00:00
7:30 PM,35.6,28.4,75,30.12,3.7,ENE,8.1,-,N/A,,Unknown,60,2013-03-03 18:30:00
8:00 PM,33.8,28.4,81,30.09,3.7,ENE,9.2,-,N/A,,Unknown,70,2013-03-03 19:00:00
8:30 PM,33.8,28.4,81,30.09,5.0,ENE,8.1,-,N/A,,Unknown,70,2013-03-03 19:30:00
9:00 PM,33.8,28.4,81,30.09,4.3,ENE,8.1,-,N/A,,Unknown,70,2013-03-03 20:00:00
9:30 PM,33.8,28.4,81,30.09,3.7,NNE,5.8,-,N/A,,Unknown,30,2013-03-03 20:30:00
10:00 PM,30.2,26.6,86,30.09,3.7,NNE,4.6,-,N/A,,Unknown,30,2013-03-03 21:00:00
10:30 PM,33.8,28.4,81,30.09,3.7,NE,9.2,-,N/A,,Unknown,50,2013-03-03 21:30:00
11:00 PM,33.8,28.4,81,30.09,3.1,ENE,9.2,-,N/A,,Mist,60,2013-03-03 22:00:00
11:30 PM,32.0,28.4,87,30.09,4.3,NE,8.1,-,N/A,,Unknown,50,2013-03-03 22:30:00